OneWeb SL0209

operational
NORAD ID: 48215 Int'l Des: 2021-031 Owner: ONEWEBN Country: UK Constellation: oneweb
LEOCIRCULARPOLARONEWEB_TYPE

OneWeb SL0209について

説明を読み込み中...

リアルタイム位置

3D地球を読み込み中...

次回通過

高度履歴

Altitude vs Time

uPlot chart will show altitude changes over time

軌道要素

1 48215U 21031F 26061.14469052 .00000328 00000-0 85054-3 0 9991
2 48215 87.8993 311.0758 0001860 77.4711 282.6626 13.14501584234310
Epoch: Mar 2, 2026 • Age: 39 hours

現在のステータス

高度 1209.9 km
速度 7.25 km/s
衛星直下点 34.39°N, 104.14°E
打ち上げ日 Apr 25, 2021
運用期間 4.8 years
タイプ internet

技術仕様

分類 Payload
質量 148.00 kg
乾燥質量 140.00 kg
総質量 148.00 kg
長さ 1.30 m
直径 1.00 m
スパン 5.00 m
形状 Trapezoid+2 pan
製造者 ONEWUS
バスタイプ ARROW
フェーズステータス In Orbit
所有者/国 ONEWEBN/UK

大規模コンステレーション

Loading constellations...